Regional Weather Roundup
Issued by NWS

Home | Current Version | Previous Version | Text Only | Print | Product List | Glossary Off
Versions: 1 2 3 4 5 6 7 8 9 10 11 12 13 14 15 16 17 18 19 20 21 22 23 24 25 26 27 28 29 30 31 32 33 34 35 36 37 38 39 40 41 42 43 44 45 46 47 48 49 50

000
ASUS43 KTOP 262359
RWRKS

WEATHER ROUNDUP FOR KANSAS
NATIONAL WEATHER SERVICE GOODLAND KS
700 PM CDT TUE MAY 26 2015

NOTE:  "FAIR" INDICATES FEW OR NO CLOUDS BELOW 12,000 FEET WITH NO
SIGNIFICANT WEATHER AND/OR OBSTRUCTIONS TO VISIBILITY.

KSZ001>006-013>018-027>032-041>047-270100-
NORTHWEST KANSAS

CITY           SKY/WX    TMP DP  RH WIND       PRES   REMARKS
GOODLAND       MOSUNNY   70  48  45 SE5       29.99F
6HR MIN TEMP:  66; 6HR MAX TEMP:  73;

HAYS           MOSUNNY   75  54  46 N10       29.95S
HILL CITY      SUNNY     73  54  51 N9        29.97R
6HR MIN TEMP:  68; 6HR MAX TEMP:  75;

RUSSELL        SUNNY     75  55  49 N9        29.93R
6HR MIN TEMP:  73; 6HR MAX TEMP:  78;

$$

KSZ061>065-074>080-084>089-270100-
SOUTHWEST KANSAS

CITY           SKY/WX    TMP DP  RH WIND       PRES   REMARKS
DODGE CITY     SUNNY     77  47  34 N3        29.96F
6HR MIN TEMP:  73; 6HR MAX TEMP:  79;

ELKHART          N/A     76  50  40 E7          N/A
GARDEN CITY    MOSUNNY   74  50  42 E5        29.96S
6HR MIN TEMP:  71; 6HR MAX TEMP:  77;

GREAT BEND     MOSUNNY   75  57  53 NW5       29.93S
LIBERAL        SUNNY     77  48  36 E7        29.98S
$$

KSZ066>073-081>083-090>101-270100-
SOUTHEAST KANSAS

CITY           SKY/WX    TMP DP  RH WIND       PRES   REMARKS
CHANUTE        CLOUDY    74  66  76 S13       29.91F
6HR MIN TEMP:  73; 6HR MAX TEMP:  81; 6HR PCP: TRACE;

COFFEYVILLE    CLOUDY    73  66  78 S12       29.90F
6HR MIN TEMP:  70; 6HR MAX TEMP:  79; 6HR PCP: TRACE;

HUTCHINSON     MOSUNNY   79  55  43 NW6       29.91F
6HR MIN TEMP:  77; 6HR MAX TEMP:  81; 6HR PCP: TRACE;

NEWTON         MOSUNNY   77  55  47 NW8       29.94S
PARSONS        LGT RAIN  73  66  78 S5        29.92F
6HR MIN TEMP:  71; 6HR MAX TEMP:  80; 6HR PCP: TRACE;

WICHITA INTL   PTSUNNY   71  58  63 SW26G35   29.93R THUNDER
6HR MIN TEMP:  71; 6HR MAX TEMP:  82;

WICHITA JABRA  PTSUNNY   72  58  61 S6        29.92R
6HR MIN TEMP:  72; 6HR MAX TEMP:  80;

WINFIELD       MOSUNNY   73  61  65 S7        29.91F
6HR MIN TEMP:  73; 6HR MAX TEMP:  80; 6HR PCP: TRACE;

$$

KSZ007>012-019>026-033>040-048>060-102>105-270100-
NORTHEAST KANSAS

CITY           SKY/WX    TMP DP  RH WIND       PRES   REMARKS
CONCORDIA      CLOUDY    70  52  52 NW8       29.92S
6HR MIN TEMP:  68; 6HR MAX TEMP:  76;

EMPORIA        PTSUNNY   76  57  51 W6        29.90S
6HR MIN TEMP:  75; 6HR MAX TEMP:  80;

LAWRENCE       MOSUNNY   76  59  55 W9G20     29.89R
6HR MIN TEMP:  74; 6HR MAX TEMP:  79;

MANHATTAN      SUNNY     75  56  51 W7        29.89S
6HR MIN TEMP:  72; 6HR MAX TEMP:  78;

OLATHE IND     MOSUNNY   77  59  53 W13       29.90R
6HR MIN TEMP:  75; 6HR MAX TEMP:  80;

OLATHE EXE     MOSUNNY   77  59  53 W8        29.88S
6HR MIN TEMP:  75; 6HR MAX TEMP:  78;

SALINA         MOSUNNY   77  57  50 N10       29.91F
6HR MIN TEMP:  75; 6HR MAX TEMP:  80;

TOPEKA BILLARD SUNNY     77  58  51 W13       29.88S
6HR MIN TEMP:  74; 6HR MAX TEMP:  79;

TOPEKA FORBES  MOSUNNY   77  60  55 W8        29.89R
6HR MIN TEMP:  74; 6HR MAX TEMP:  79;

$$



USA.gov is the U.S. government's official web portal to all federal, state and local government web resources and services.